{"data":{"norad_id":49765,"epoch":"2026-09-19T22:20:56.265792Z","epoch_age_seconds":94038,"freshness":"FRESH","line1":"1 49765U 21115AT  26262.93120678  .00000971  00000+0  43054-4 0  9991","line2":"2 49765  53.1617 331.8656 0001081  85.0072 275.1053 15.31703116265217","mean_motion":15.31703116,"eccentricity":0.0001081,"inclination_deg":53.1617,"raan_deg":331.8656,"arg_perigee_deg":85.0072,"mean_anomaly_deg":275.1053,"bstar":4.3054e-5,"rev_number":26521,"period_min":94.012996706602,"perigee_km":469.99034400845,"apogee_km":471.47106920662,"semimajor_km":6848.8677066075,"source":"CELESTRAK","updated_at":"2026-09-20T09:00:39.411526Z"}}